Location: Unspecified
(42.3650°N, 71.1030°W)
Time: 11:23:04
(UTC+00:00)

Vanguard 1 - All Passes

Search period start: 21 June 2024 00:00
Search period end: 01 July 2024 00:00
Orbit: 652 x 3825 km, 34.2° (Epoch: 20 June)

Date Brightness Start Highest point End Pass type
(mag) Time Alt. Az. Time Alt. Az. Time Alt. Az.
21 Jun - 14:34:43 10° S 14:40:00 15° SSE 14:44:04 10° SE daylight
21 Jun - 16:54:08 10° SW 17:00:29 29° S 17:04:53 10° ESE daylight
21 Jun - 19:15:25 10° WSW 19:20:01 32° S 19:23:58 10° ESE daylight
21 Jun - 21:36:40 10° WSW 21:39:15 15° SSW 21:42:03 10° SSE daylight
22 Jun - 14:53:05 10° SSW 15:00:08 21° SSE 15:05:03 10° ESE daylight
22 Jun - 17:13:58 10° WSW 17:20:27 34° S 17:24:54 10° ESE daylight
22 Jun - 19:35:32 10° WSW 19:39:53 29° SSW 19:43:43 10° SE daylight
22 Jun - 21:58:18 10° SW 21:59:07 10° SSW 21:59:56 10° SSW daylight
23 Jun - 12:56:18 10° SSE 12:58:52 11° SSE 13:01:10 10° SE daylight
23 Jun - 15:12:09 10° SW 15:20:14 26° SSE 15:25:32 10° ESE daylight
23 Jun - 17:33:58 10° WSW 17:40:24 37° S 17:44:51 10° ESE daylight
23 Jun - 19:55:45 10° WSW 19:59:44 24° SSW 20:03:20 10° SE daylight
24 Jun - 13:12:08 10° S 13:19:05 16° SSE 13:24:20 10° ESE daylight
24 Jun - 15:31:38 10° SW 15:40:18 32° SSE 15:45:45 10° ESE daylight
24 Jun - 17:54:04 10° WSW 18:00:20 37° S 18:04:43 10° ESE daylight
24 Jun - 20:16:07 10° WSW 20:19:31 19° SSW 20:22:42 10° SSE daylight
25 Jun - 13:30:06 10° SSW 13:39:17 22° SSE 13:45:33 10° ESE daylight
25 Jun - 15:51:25 10° SW 16:00:20 37° S 16:05:49 10° ESE daylight
25 Jun - 18:14:13 10° WSW 18:20:13 36° S 18:24:31 10° ESE daylight
25 Jun - 20:36:52 10° WSW 20:39:17 14° SSW 20:41:37 10° S daylight
26 Jun - 11:35:02 10° SSE 11:37:18 10° SSE 11:39:24 10° SE daylight
26 Jun - 13:48:52 10° SSW 13:59:27 27° SSE 14:06:10 10° ESE daylight
26 Jun - 16:11:24 10° WSW 16:20:21 41° S 16:25:47 10° ESE daylight
26 Jun - 18:34:27 10° WSW 18:40:04 32° SSW 18:44:13 10° SE daylight
27 Jun - 11:49:18 10° S 11:57:33 16° SSE 12:03:55 10° ESE daylight
27 Jun - 14:08:08 10° SW 14:19:35 33° SSE 14:26:30 10° ESE daylight
27 Jun - 16:31:32 10° WSW 16:40:21 44° S 16:45:41 10° ESE daylight
27 Jun - 18:54:46 10° WSW 18:59:52 27° SSW 19:03:47 10° SE daylight
28 Jun - 12:06:39 10° SSW 12:17:47 21° SSE 12:25:33 10° ESE daylight
28 Jun - 14:27:47 10° SW 14:39:42 39° SSE 14:46:38 10° E daylight
28 Jun - 16:51:45 10° WSW 17:00:18 44° S 17:05:31 10° ESE daylight
28 Jun - 19:15:13 10° WSW 19:19:35 21° SSW 19:23:07 10° SSE daylight
29 Jun - 12:25:01 10° SSW 12:38:00 27° SSE 12:46:24 10° ESE daylight
29 Jun - 14:47:41 10° WSW 14:59:48 44° S 15:06:38 10° ESE daylight
29 Jun - 17:12:03 10° WSW 17:20:13 42° SSW 17:25:17 10° ESE daylight
29 Jun - 19:35:59 10° WSW 19:39:15 16° SSW 19:42:03 10° S daylight
30 Jun - 10:26:58 10° S 10:35:24 14° SE 10:42:18 10° ESE daylight
30 Jun - 12:43:58 10° SW 12:58:11 34° SSE 13:06:53 10° E daylight
30 Jun - 15:07:48 10° WSW 15:19:52 48° S 15:26:35 10° ESE daylight
30 Jun - 17:32:24 10° W 17:40:04 38° SSW 17:44:58 10° SE daylight
30 Jun - 19:57:58 10° SW 19:58:50 10° SW 19:59:39 10° SSW daylight
